Time,TemperatureF,DewpointF,PressureIn,WindDirection,WindDirectionDegrees,WindSpeedMPH,WindSpeedGustMPH,Humidity,HourlyPrecipIn,Conditions,Clouds,dailyrainin,SoftwareType,DateUTC
2013-02-15 00:00:00,32.4,21.9,29.03,East,90,0.0,0.0,65,0.00,CLR,SCT,0.00,WeatherDisplay:10.37,2013-02-15 05:00:00,
2013-02-15 00:05:00,32.2,22.1,29.03,East,90,0.0,0.0,66,0.00,CLR,SCT,0.00,WeatherDisplay:10.37,2013-02-15 05:05:00,
2013-02-15 00:10:00,32.2,22.4,29.00,East,90,0.0,0.0,67,0.00,CLR,SCT,0.00,WeatherDisplay:10.37,2013-02-15 05:10:00,
2013-02-15 00:15:00,32.0,22.3,29.00,East,90,0.0,0.0,67,0.00,CLR,SCT,0.00,WeatherDisplay:10.37,2013-02-15 05:15:00,
2013-02-15 00:20:00,31.8,22.1,29.00,East,90,0.0,0.0,67,0.00,CLR,SCT,0.00,WeatherDisplay:10.37,2013-02-15 05:20:00,
2013-02-15 00:25:00,31.8,22.1,29.00,East,90,0.0,0.0,67,0.00,CLR,SCT,0.00,WeatherDisplay:10.37,2013-02-15 05:25:00,
2013-02-15 00:30:00,31.8,22.5,29.00,East,90,0.0,0.0,68,0.00,CLR,SCT,0.00,WeatherDisplay:10.37,2013-02-15 05:30:00,
2013-02-15 00:35:00,31.6,22.3,29.00,East,90,0.0,0.0,68,0.00,CLR,SCT,0.00,WeatherDisplay:10.37,2013-02-15 05:35:00,
2013-02-15 00:40:00,31.6,21.9,29.00,WNW,292,0.0,0.0,67,0.00,CLR,SCT,0.00,WeatherDisplay:10.37,2013-02-15 05:40:00,
2013-02-15 00:45:00,31.5,22.1,29.00,WSW,248,0.0,0.0,68,0.00,CLR,SCT,0.00,WeatherDisplay:10.37,2013-02-15 05:45:00,
2013-02-15 00:50:00,31.3,21.9,29.00,WSW,248,0.0,0.0,68,0.00,CLR,SCT,0.00,WeatherDisplay:10.37,2013-02-15 05:50:00,
2013-02-15 00:55:00,31.3,21.9,29.00,WSW,248,0.0,0.0,68,0.00,CLR,SCT,0.00,WeatherDisplay:10.37,2013-02-15 05:55:00,
2013-02-15 01:00:00,31.1,22.1,29.00,WSW,248,0.0,0.0,69,0.00,CLR,SCT,0.00,WeatherDisplay:10.37,2013-02-15 06:00:00,
2013-02-15 01:05:00,31.1,21.8,29.00,WSW,248,0.0,0.0,68,0.00,CLR,SCT,0.00,WeatherDisplay:10.37,2013-02-15 06:05:00,
2013-02-15 01:10:00,30.9,21.6,29.00,WSW,248,0.0,0.0,68,0.00,CLR,SCT,0.00,WeatherDisplay:10.37,2013-02-15 06:10:00,
2013-02-15 01:15:00,30.7,21.1,29.00,West,270,0.0,0.0,67,0.00,CLR,SCT,0.00,WeatherDisplay:10.37,2013-02-15 06:15:00,
2013-02-15 01:20:00,30.9,21.2,29.00,WSW,248,1.1,1.1,67,0.00,CLR,SCT,0.00,WeatherDisplay:10.37,2013-02-15 06:20:00,
2013-02-15 01:25:00,30.9,21.6,29.00,WSW,248,0.0,0.0,68,0.00,CLR,SCT,0.00,WeatherDisplay:10.37,2013-02-15 06:25:00,
2013-02-15 01:30:00,30.9,21.9,29.00,SE,135,0.0,0.0,69,0.00,CLR,SCT,0.00,WeatherDisplay:10.37,2013-02-15 06:30:00,
2013-02-15 01:35:00,30.7,22.1,29.00,SE,135,0.0,0.0,70,0.00,CLR,SCT,0.00,WeatherDisplay:10.37,2013-02-15 06:35:00,
2013-02-15 01:40:00,30.6,21.9,29.00,SE,135,0.0,0.0,70,0.00,CLR,SCT,0.00,WeatherDisplay:10.37,2013-02-15 06:40:00,
2013-02-15 01:45:00,30.4,21.8,29.00,SE,135,0.0,0.0,70,0.00,CLR,SCT,0.00,WeatherDisplay:10.37,2013-02-15 06:45:00,
2013-02-15 01:50:00,30.2,21.9,29.00,SE,135,0.0,0.0,71,0.00,CLR,SCT,0.00,WeatherDisplay:10.37,2013-02-15 06:50:00,
2013-02-15 01:55:00,30.2,21.9,29.00,SE,135,0.0,0.0,71,0.00,CLR,SCT,0.00,WeatherDisplay:10.37,2013-02-15 06:55:00,
2013-02-15 02:00:00,30.2,21.6,29.00,South,180,0.0,0.0,70,0.00,CLR,SCT,0.00,WeatherDisplay:10.37,2013-02-15 07:00:00,
2013-02-15 02:05:00,30.0,21.8,29.00,South,180,0.0,0.0,71,0.00,CLR,SCT,0.00,WeatherDisplay:10.37,2013-02-15 07:05:00,
2013-02-15 02:10:00,30.0,21.8,29.00,SSW,202,0.0,0.0,71,0.00,CLR,SCT,0.00,WeatherDisplay:10.37,2013-02-15 07:10:00,
2013-02-15 02:15:00,30.0,21.8,29.00,SSW,202,0.0,0.0,71,0.00,CLR,SCT,0.00,WeatherDisplay:10.37,2013-02-15 07:15:00,
2013-02-15 02:20:00,29.8,21.6,29.00,SSW,202,0.0,0.0,71,0.00,CLR,SCT,0.00,WeatherDisplay:10.37,2013-02-15 07:20:00,
2013-02-15 02:25:00,29.8,21.6,29.00,SSW,202,0.0,0.0,71,0.00,CLR,SCT,0.00,WeatherDisplay:10.37,2013-02-15 07:25:00,
2013-02-15 02:30:00,29.7,21.7,29.00,East,90,0.0,0.0,72,0.00,CLR,SCT,0.00,WeatherDisplay:10.37,2013-02-15 07:30:00,
2013-02-15 02:35:00,29.7,21.7,29.00,East,90,0.0,0.0,72,0.00,CLR,SCT,0.00,WeatherDisplay:10.37,2013-02-15 07:35:00,
2013-02-15 02:40:00,29.5,21.6,29.00,SE,135,0.0,0.0,72,0.00,CLR,SCT,0.00,WeatherDisplay:10.37,2013-02-15 07:40:00,
2013-02-15 02:45:00,29.5,21.6,29.00,SE,135,0.0,0.0,72,0.00,CLR,SCT,0.00,WeatherDisplay:10.37,2013-02-15 07:45:00,
2013-02-15 02:50:00,29.5,21.9,29.00,SE,135,0.0,0.0,73,0.00,CLR,SCT,0.00,WeatherDisplay:10.37,2013-02-15 07:50:00,
2013-02-15 02:55:00,29.5,21.9,29.00,SE,135,0.0,0.0,73,0.00,CLR,SCT,0.00,WeatherDisplay:10.37,2013-02-15 07:55:00,
2013-02-15 03:00:00,29.3,21.4,29.00,SE,135,0.0,0.0,72,0.00,CLR,SCT,0.00,WeatherDisplay:10.37,2013-02-15 08:00:00,
2013-02-15 03:05:00,29.5,21.6,29.00,SE,135,0.0,0.0,72,0.00,CLR,SCT,0.00,WeatherDisplay:10.37,2013-02-15 08:05:00,
2013-02-15 03:10:00,29.5,21.2,29.00,SE,135,0.0,0.0,71,0.00,CLR,SCT,0.00,WeatherDisplay:10.37,2013-02-15 08:10:00,
2013-02-15 03:15:00,29.5,21.6,29.00,SE,135,0.0,0.0,72,0.00,CLR,SCT,0.00,WeatherDisplay:10.37,2013-02-15 08:15:00,
2013-02-15 03:20:00,29.5,21.6,29.00,SE,135,0.0,0.0,72,0.00,CLR,SCT,0.00,WeatherDisplay:10.37,2013-02-15 08:20:00,
2013-02-15 03:25:00,29.5,21.6,29.00,SE,135,0.0,0.0,72,0.00,CLR,SCT,0.00,WeatherDisplay:10.37,2013-02-15 08:25:00,
2013-02-15 03:30:00,29.5,21.9,29.00,SE,135,0.0,0.0,73,0.00,CLR,SCT,0.00,WeatherDisplay:10.37,2013-02-15 08:30:00,
2013-02-15 03:35:00,29.5,21.9,29.00,SE,135,0.0,0.0,73,0.00,CLR,SCT,0.00,WeatherDisplay:10.37,2013-02-15 08:35:00,
2013-02-15 03:40:00,29.3,21.7,29.00,SE,135,0.0,0.0,73,0.00,CLR,SCT,0.00,WeatherDisplay:10.37,2013-02-15 08:40:00,
2013-02-15 03:45:00,29.3,21.7,29.00,SE,135,0.0,0.0,73,0.00,CLR,SCT,0.00,WeatherDisplay:10.37,2013-02-15 08:45:00,
2013-02-15 03:50:00,29.1,21.5,29.00,SE,135,0.0,0.0,73,0.00,CLR,SCT,0.00,WeatherDisplay:10.37,2013-02-15 08:50:00,
2013-02-15 03:55:00,29.1,21.5,29.00,SE,135,0.0,0.0,73,0.00,CLR,SCT,0.00,WeatherDisplay:10.37,2013-02-15 08:55:00,
2013-02-15 04:00:00,29.1,21.5,29.00,SE,135,0.0,0.0,73,0.00,CLR,SCT,0.00,WeatherDisplay:10.37,2013-02-15 09:00:00,
2013-02-15 04:05:00,29.1,21.5,29.00,SE,135,0.0,0.0,73,0.00,CLR,SCT,0.00,WeatherDisplay:10.37,2013-02-15 09:05:00,
2013-02-15 04:10:00,29.1,21.9,29.00,SE,135,0.0,0.0,74,0.00,CLR,SCT,0.00,WeatherDisplay:10.37,2013-02-15 09:10:00,
2013-02-15 04:15:00,28.9,21.4,29.00,SE,135,0.0,0.0,73,0.00,CLR,SCT,0.00,WeatherDisplay:10.37,2013-02-15 09:15:00,
2013-02-15 04:20:00,28.9,21.4,29.00,SE,135,0.0,0.0,73,0.00,CLR,SCT,0.00,WeatherDisplay:10.37,2013-02-15 09:20:00,
2013-02-15 04:25:00,28.8,21.2,29.00,SE,135,0.0,0.0,73,0.00,CLR,SCT,0.00,WeatherDisplay:10.37,2013-02-15 09:25:00,
2013-02-15 04:30:00,28.8,21.5,29.00,SE,135,0.0,0.0,74,0.00,CLR,SCT,0.00,WeatherDisplay:10.37,2013-02-15 09:30:00,
2013-02-15 04:35:00,28.8,21.5,29.00,SE,135,0.0,0.0,74,0.00,CLR,SCT,0.00,WeatherDisplay:10.37,2013-02-15 09:35:00,
2013-02-15 04:40:00,28.6,21.3,29.00,SE,135,0.0,0.0,74,0.00,CLR,SCT,0.00,WeatherDisplay:10.37,2013-02-15 09:40:00,
2013-02-15 04:45:00,28.6,21.3,29.00,SE,135,0.0,0.0,74,0.00,CLR,SCT,0.00,WeatherDisplay:10.37,2013-02-15 09:45:00,
2013-02-15 04:50:00,28.6,21.3,29.00,SE,135,0.0,0.0,74,0.00,CLR,SCT,0.00,WeatherDisplay:10.37,2013-02-15 09:50:00,
2013-02-15 04:55:00,28.4,21.5,29.00,SE,135,0.0,0.0,75,0.00,CLR,SCT,0.00,WeatherDisplay:10.37,2013-02-15 09:55:00,
2013-02-15 05:00:00,28.4,21.2,29.00,SE,135,0.0,0.0,74,0.00,CLR,SCT,0.00,WeatherDisplay:10.37,2013-02-15 10:00:00,
2013-02-15 05:05:00,28.4,21.2,29.00,SE,135,0.0,0.0,74,0.00,CLR,SCT,0.00,WeatherDisplay:10.37,2013-02-15 10:05:00,
2013-02-15 05:10:00,28.4,21.2,29.00,SE,135,0.0,0.0,74,0.00,CLR,SCT,0.00,WeatherDisplay:10.37,2013-02-15 10:10:00,
2013-02-15 05:15:00,28.4,21.5,29.00,SE,135,0.0,0.0,75,0.00,CLR,SCT,0.00,WeatherDisplay:10.37,2013-02-15 10:15:00,
2013-02-15 05:20:00,28.4,21.5,29.00,SE,135,0.0,0.0,75,0.00,CLR,SCT,0.00,WeatherDisplay:10.37,2013-02-15 10:20:00,
2013-02-15 05:25:00,28.4,21.5,29.03,SE,135,0.0,0.0,75,0.00,CLR,SCT,0.00,WeatherDisplay:10.37,2013-02-15 10:25:00,
2013-02-15 05:30:00,28.4,21.5,29.03,SE,135,0.0,0.0,75,0.00,CLR,SCT,0.00,WeatherDisplay:10.37,2013-02-15 10:30:00,
2013-02-15 05:35:00,28.2,21.3,29.03,SE,135,0.0,0.0,75,0.00,CLR,SCT,0.00,WeatherDisplay:10.37,2013-02-15 10:35:00,
2013-02-15 05:40:00,28.4,21.5,29.03,SE,135,0.0,0.0,75,0.00,CLR,SCT,0.00,WeatherDisplay:10.37,2013-02-15 10:40:00,
2013-02-15 05:45:00,28.2,21.3,29.03,SE,135,0.0,0.0,75,0.00,CLR,SCT,0.00,WeatherDisplay:10.37,2013-02-15 10:45:00,
2013-02-15 05:50:00,28.2,21.3,29.03,SE,135,0.0,0.0,75,0.00,CLR,SCT,0.00,WeatherDisplay:10.37,2013-02-15 10:50:00,
2013-02-15 05:55:00,28.2,21.3,29.03,SE,135,0.0,0.0,75,0.00,CLR,SCT,0.00,WeatherDisplay:10.37,2013-02-15 10:55:00,
2013-02-15 06:00:00,28.2,21.3,29.03,SE,135,0.0,0.0,75,0.00,CLR,SCT,0.00,WeatherDisplay:10.37,2013-02-15 11:00:00,
2013-02-15 06:05:00,28.2,21.3,29.03,SE,135,0.0,0.0,75,0.00,CLR,SCT,0.00,WeatherDisplay:10.37,2013-02-15 11:05:00,
2013-02-15 06:10:00,28.2,21.3,29.03,SE,135,0.0,0.0,75,0.00,CLR,SCT,0.00,WeatherDisplay:10.37,2013-02-15 11:10:00,
2013-02-15 06:15:00,28.2,21.3,29.03,SE,135,0.0,0.0,75,0.00,CLR,SCT,0.00,WeatherDisplay:10.37,2013-02-15 11:15:00,
2013-02-15 06:20:00,28.2,21.3,29.03,SE,135,0.0,0.0,75,0.00,CLR,SCT,0.00,WeatherDisplay:10.37,2013-02-15 11:20:00,
2013-02-15 06:25:00,28.2,21.3,29.03,SE,135,0.0,0.0,75,0.00,CLR,SCT,0.00,WeatherDisplay:10.37,2013-02-15 11:25:00,
2013-02-15 06:30:00,28.2,21.3,29.03,SE,135,0.0,0.0,75,0.00,CLR,SCT,0.00,WeatherDisplay:10.37,2013-02-15 11:30:00,
2013-02-15 06:35:00,28.2,21.3,29.03,SE,135,0.0,0.0,75,0.00,CLR,SCT,0.00,WeatherDisplay:10.37,2013-02-15 11:35:00,
2013-02-15 06:40:00,28.2,21.3,29.03,SE,135,0.0,0.0,75,0.00,CLR,SCT,0.00,WeatherDisplay:10.37,2013-02-15 11:40:00,
2013-02-15 06:45:00,28.0,21.1,29.03,SE,135,0.0,0.0,75,0.00,CLR,SCT,0.00,WeatherDisplay:10.37,2013-02-15 11:45:00,
2013-02-15 06:50:00,28.0,21.1,29.03,SE,135,0.0,0.0,75,0.00,CLR,SCT,0.00,WeatherDisplay:10.37,2013-02-15 11:50:00,
2013-02-15 06:55:00,27.9,20.6,29.03,SE,135,0.0,0.0,74,0.00,CLR,SCT,0.00,WeatherDisplay:10.37,2013-02-15 11:55:00,
2013-02-15 07:00:00,27.9,20.6,29.03,SE,135,0.0,0.0,74,0.00,CLR,SCT,0.00,WeatherDisplay:10.37,2013-02-15 12:00:00,
2013-02-15 07:05:00,27.9,20.6,29.03,SE,135,0.0,0.0,74,0.00,CLR,SCT,0.00,WeatherDisplay:10.37,2013-02-15 12:05:00,
2013-02-15 07:10:00,27.9,20.6,29.03,SE,135,0.0,0.0,74,0.00,CLR,SCT,0.00,WeatherDisplay:10.37,2013-02-15 12:10:00,
2013-02-15 07:15:00,27.9,20.6,29.03,SE,135,0.0,0.0,74,0.00,CLR,SCT,0.00,WeatherDisplay:10.37,2013-02-15 12:15:00,
2013-02-15 07:20:00,27.9,21.0,29.03,SE,135,0.0,0.0,75,0.00,CLR,SCT,0.00,WeatherDisplay:10.37,2013-02-15 12:20:00,
2013-02-15 07:25:00,27.9,21.0,29.00,SE,135,0.0,0.0,75,0.00,CLR,SCT,0.00,WeatherDisplay:10.37,2013-02-15 12:25:00,
2013-02-15 07:30:00,27.9,21.0,29.00,SE,135,0.0,0.0,75,0.00,CLR,SCT,0.00,WeatherDisplay:10.37,2013-02-15 12:30:00,
2013-02-15 07:35:00,27.9,21.0,29.00,SE,135,0.0,0.0,75,0.00,CLR,SCT,0.00,WeatherDisplay:10.37,2013-02-15 12:35:00,
2013-02-15 07:40:00,27.9,21.3,29.03,SE,135,0.0,0.0,76,0.00,CLR,SCT,0.00,WeatherDisplay:10.37,2013-02-15 12:40:00,
2013-02-15 07:45:00,27.9,21.3,29.03,SE,135,0.0,0.0,76,0.00,CLR,SCT,0.00,WeatherDisplay:10.37,2013-02-15 12:45:00,
2013-02-15 07:50:00,28.0,21.4,29.03,SE,135,0.0,0.0,76,0.00,CLR,SCT,0.00,WeatherDisplay:10.37,2013-02-15 12:50:00,
2013-02-15 07:55:00,28.4,21.8,29.03,SE,135,0.0,0.0,76,0.00,CLR,SCT,0.00,WeatherDisplay:10.37,2013-02-15 12:55:00,
2013-02-15 08:00:00,28.6,22.3,29.03,SE,135,0.0,0.0,77,0.00,CLR,SCT,0.00,WeatherDisplay:10.37,2013-02-15 13:00:00,
2013-02-15 08:05:00,28.9,22.6,29.03,SE,135,0.0,0.0,77,0.00,CLR,SCT,0.00,WeatherDisplay:10.37,2013-02-15 13:05:00,
2013-02-15 08:10:00,29.3,23.0,29.00,SE,135,0.0,0.0,77,0.00,CLR,SCT,0.00,WeatherDisplay:10.37,2013-02-15 13:10:00,
2013-02-15 08:15:00,29.7,23.3,29.00,SE,135,0.0,0.0,77,0.00,CLR,SCT,0.00,WeatherDisplay:10.37,2013-02-15 13:15:00,
2013-02-15 08:20:00,30.0,24.0,29.00,SE,135,0.0,0.0,78,0.00,CLR,SCT,0.00,WeatherDisplay:10.37,2013-02-15 13:20:00,
2013-02-15 08:25:00,30.6,24.5,29.03,SE,135,0.0,0.0,78,0.00,CLR,SCT,0.00,WeatherDisplay:10.37,2013-02-15 13:25:00,
2013-02-15 08:30:00,31.1,25.0,29.03,SE,135,0.0,0.0,78,0.00,CLR,SCT,0.00,WeatherDisplay:10.37,2013-02-15 13:30:00,
2013-02-15 08:35:00,31.6,25.6,29.03,SE,135,0.0,0.0,78,0.00,CLR,SCT,0.00,WeatherDisplay:10.37,2013-02-15 13:35:00,
2013-02-15 08:40:00,32.4,26.6,29.03,SE,135,0.0,0.0,79,0.00,CLR,SCT,0.00,WeatherDisplay:10.37,2013-02-15 13:40:00,
2013-02-15 08:45:00,32.7,26.9,29.03,SE,135,0.0,0.0,79,0.00,CLR,SCT,0.00,WeatherDisplay:10.37,2013-02-15 13:45:00,
2013-02-15 08:50:00,33.4,27.9,29.03,SE,135,0.0,0.0,80,0.00,CLR,SCT,0.00,WeatherDisplay:10.37,2013-02-15 13:50:00,
2013-02-15 08:55:00,34.2,28.6,29.03,SE,135,0.0,0.0,80,0.00,CLR,SCT,0.00,WeatherDisplay:10.37,2013-02-15 13:55:00,
2013-02-15 09:00:00,35.4,30.2,29.03,SE,135,0.0,0.0,81,0.00,CLR,SCT,0.00,WeatherDisplay:10.37,2013-02-15 14:00:00,
2013-02-15 09:05:00,36.7,31.7,29.03,SE,135,0.0,0.0,82,0.00,CLR,SCT,0.00,WeatherDisplay:10.37,2013-02-15 14:05:00,
2013-02-15 09:10:00,38.1,33.1,29.03,North,0,0.0,0.0,82,0.00,CLR,SCT,0.00,WeatherDisplay:10.37,2013-02-15 14:10:00,
2013-02-15 09:15:00,39.2,34.2,29.03,North,0,0.0,0.0,82,0.00,CLR,SCT,0.00,WeatherDisplay:10.37,2013-02-15 14:15:00,
2013-02-15 09:20:00,41.0,35.9,29.03,North,0,0.0,0.0,82,0.00,CLR,SCT,0.00,WeatherDisplay:10.37,2013-02-15 14:20:00,
2013-02-15 09:25:00,42.1,36.7,29.03,North,0,0.0,0.0,81,0.00,CLR,SCT,0.00,WeatherDisplay:10.37,2013-02-15 14:25:00,
2013-02-15 09:30:00,43.2,37.4,29.03,North,0,0.0,0.0,80,0.00,CLR,SCT,0.00,WeatherDisplay:10.37,2013-02-15 14:30:00,
2013-02-15 09:35:00,45.0,38.8,29.03,North,0,0.0,0.0,79,0.00,CLR,SCT,0.00,WeatherDisplay:10.37,2013-02-15 14:35:00,
2013-02-15 09:40:00,46.4,39.6,29.03,North,0,0.0,0.0,77,0.00,CLR,SCT,0.00,WeatherDisplay:10.37,2013-02-15 14:40:00,
2013-02-15 09:45:00,47.7,40.8,29.03,NNW,338,1.1,1.1,77,0.00,CLR,SCT,0.00,WeatherDisplay:10.37,2013-02-15 14:45:00,
2013-02-15 09:50:00,48.7,39.8,29.03,NNW,338,0.0,0.0,71,0.00,CLR,SCT,0.00,WeatherDisplay:10.37,2013-02-15 14:50:00,
2013-02-15 09:55:00,50.2,37.7,29.03,North,0,1.1,0.0,62,0.00,CLR,SCT,0.00,WeatherDisplay:10.37,2013-02-15 14:55:00,
2013-02-15 10:00:00,50.9,35.3,29.03,NNE,22,1.4,1.4,55,0.00,CLR,SCT,0.00,WeatherDisplay:10.37,2013-02-15 15:00:00,
2013-02-15 10:05:00,51.4,33.4,29.03,NNE,22,2.3,2.3,50,0.00,CLR,SCT,0.00,WeatherDisplay:10.37,2013-02-15 15:05:00,
2013-02-15 10:10:00,52.2,32.0,29.03,West,270,1.4,1.4,46,0.00,CLR,SCT,0.00,WeatherDisplay:10.37,2013-02-15 15:10:00,
2013-02-15 10:15:00,53.1,31.7,29.03,West,270,1.1,1.1,44,0.00,CLR,SCT,0.00,WeatherDisplay:10.37,2013-02-15 15:15:00,
2013-02-15 10:20:00,54.1,30.3,29.03,WSW,248,1.1,1.4,40,0.00,CLR,SCT,0.00,WeatherDisplay:10.37,2013-02-15 15:20:00,
2013-02-15 10:25:00,55.0,30.5,29.03,West,270,1.1,1.1,39,0.00,CLR,SCT,0.00,WeatherDisplay:10.37,2013-02-15 15:25:00,
2013-02-15 10:30:00,56.5,31.2,29.03,NE,45,0.0,0.0,38,0.00,CLR,SCT,0.00,WeatherDisplay:10.37,2013-02-15 15:30:00,
2013-02-15 10:35:00,57.4,30.6,29.03,NW,315,0.0,0.0,36,0.00,CLR,SCT,0.00,WeatherDisplay:10.37,2013-02-15 15:35:00,
2013-02-15 10:40:00,57.9,31.1,29.03,South,180,0.0,0.0,36,0.00,CLR,SCT,0.00,WeatherDisplay:10.37,2013-02-15 15:40:00,
2013-02-15 10:45:00,57.9,30.4,29.03,South,180,2.3,2.3,35,0.00,CLR,SCT,0.00,WeatherDisplay:10.37,2013-02-15 15:45:00,
2013-02-15 10:50:00,57.9,29.0,29.03,South,180,2.3,2.3,33,0.00,CLR,SCT,0.00,WeatherDisplay:10.37,2013-02-15 15:50:00,
2013-02-15 10:55:00,57.9,29.7,29.00,ENE,68,2.3,2.3,34,0.00,CLR,SCT,0.00,WeatherDisplay:10.37,2013-02-15 15:55:00,
2013-02-15 11:00:00,58.1,28.4,29.00,ESE,112,2.3,2.3,32,0.00,CLR,SCT,0.00,WeatherDisplay:10.37,2013-02-15 16:00:00,
2013-02-15 11:05:00,58.5,29.4,29.00,SSE,158,2.0,0.0,33,0.00,CLR,SCT,0.00,WeatherDisplay:10.37,2013-02-15 16:05:00,
2013-02-15 11:10:00,58.6,28.1,29.03,South,180,1.1,0.0,31,0.00,CLR,SCT,0.00,WeatherDisplay:10.37,2013-02-15 16:10:00,
2013-02-15 11:15:00,59.0,27.6,29.03,WSW,248,1.6,1.6,30,0.00,CLR,SCT,0.00,WeatherDisplay:10.37,2013-02-15 16:15:00,
2013-02-15 11:20:00,59.4,27.1,29.03,ESE,112,1.1,1.1,29,0.00,CLR,SCT,0.00,WeatherDisplay:10.37,2013-02-15 16:20:00,
2013-02-15 11:25:00,60.1,27.7,29.03,South,180,1.4,1.4,29,0.00,CLR,SCT,0.00,WeatherDisplay:10.37,2013-02-15 16:25:00,
2013-02-15 11:30:00,60.8,26.6,29.03,SW,225,1.1,1.1,27,0.00,CLR,SCT,0.00,WeatherDisplay:10.37,2013-02-15 16:30:00,
2013-02-15 11:35:00,61.7,27.3,29.03,WNW,292,2.4,2.4,27,0.00,CLR,SCT,0.00,WeatherDisplay:10.37,2013-02-15 16:35:00,
2013-02-15 11:40:00,61.9,25.6,29.03,West,270,2.9,2.9,25,0.00,CLR,SCT,0.00,WeatherDisplay:10.37,2013-02-15 16:40:00,
2013-02-15 11:45:00,61.7,25.5,29.03,West,270,2.4,0.0,25,0.00,CLR,SCT,0.00,WeatherDisplay:10.37,2013-02-15 16:45:00,
2013-02-15 11:50:00,61.7,25.5,29.03,West,270,2.3,2.3,25,0.00,CLR,SCT,0.00,WeatherDisplay:10.37,2013-02-15 16:50:00,
2013-02-15 11:55:00,61.3,25.2,29.03,WNW,292,2.3,2.3,25,0.00,CLR,SCT,0.00,WeatherDisplay:10.37,2013-02-15 16:55:00,
2013-02-15 12:00:00,61.2,25.0,29.03,WNW,292,2.3,2.3,25,0.00,CLR,SCT,0.00,WeatherDisplay:10.37,2013-02-15 17:00:00,
2013-02-15 12:05:00,61.3,25.2,29.03,South,180,2.4,2.4,25,0.00,CLR,SCT,0.00,WeatherDisplay:10.37,2013-02-15 17:05:00,
2013-02-15 12:10:00,61.2,25.0,29.03,East,90,2.3,2.3,25,0.00,CLR,SCT,0.00,WeatherDisplay:10.37,2013-02-15 17:10:00,
2013-02-15 12:15:00,61.0,24.9,29.03,West,270,2.3,2.3,25,0.00,CLR,SCT,0.00,WeatherDisplay:10.37,2013-02-15 17:15:00,
2013-02-15 12:20:00,61.0,24.9,29.03,SE,135,2.3,2.3,25,0.00,CLR,SCT,0.00,WeatherDisplay:10.37,2013-02-15 17:20:00,
2013-02-15 12:25:00,61.0,23.9,29.03,SSW,202,2.3,2.3,24,0.00,CLR,SCT,0.00,WeatherDisplay:10.37,2013-02-15 17:25:00,
2013-02-15 12:30:00,61.0,23.9,29.03,West,270,1.6,1.6,24,0.00,CLR,SCT,0.00,WeatherDisplay:10.37,2013-02-15 17:30:00,
2013-02-15 12:35:00,61.2,24.0,29.03,WNW,292,2.4,2.4,24,0.00,CLR,SCT,0.00,WeatherDisplay:10.37,2013-02-15 17:35:00,
2013-02-15 12:40:00,61.3,24.2,29.00,WSW,248,4.6,4.6,24,0.00,CLR,SCT,0.00,WeatherDisplay:10.37,2013-02-15 17:40:00,
2013-02-15 12:45:00,61.7,24.5,29.00,West,270,2.3,2.3,24,0.00,CLR,SCT,0.00,WeatherDisplay:10.37,2013-02-15 17:45:00,
2013-02-15 12:50:00,62.8,25.4,29.00,ESE,112,1.6,1.6,24,0.00,CLR,SCT,0.00,WeatherDisplay:10.37,2013-02-15 17:50:00,
2013-02-15 12:55:00,63.9,26.3,29.00,South,180,2.3,2.3,24,0.00,CLR,SCT,0.00,WeatherDisplay:10.37,2013-02-15 17:55:00,
2013-02-15 13:00:00,64.4,25.8,29.00,South,180,1.1,1.1,23,0.00,CLR,SCT,0.00,WeatherDisplay:10.37,2013-02-15 18:00:00,
2013-02-15 13:05:00,64.2,23.4,29.00,SSE,158,2.3,2.3,21,0.00,CLR,SCT,0.00,WeatherDisplay:10.37,2013-02-15 18:05:00,
2013-02-15 13:10:00,65.3,26.5,29.00,South,180,2.3,2.3,23,0.00,CLR,SCT,0.00,WeatherDisplay:10.37,2013-02-15 18:10:00,
2013-02-15 13:15:00,65.5,23.3,29.00,SW,225,3.5,3.5,20,0.00,CLR,SCT,0.00,WeatherDisplay:10.37,2013-02-15 18:15:00,
2013-02-15 13:20:00,65.8,27.0,29.00,ESE,112,3.5,3.5,23,0.00,CLR,SCT,0.00,WeatherDisplay:10.37,2013-02-15 18:20:00,
2013-02-15 13:25:00,66.0,23.8,28.97,WSW,248,2.3,2.3,20,0.00,CLR,SCT,0.00,WeatherDisplay:10.37,2013-02-15 18:25:00,
2013-02-15 13:30:00,66.6,24.2,28.97,SE,135,3.5,3.5,20,0.00,CLR,SCT,0.00,WeatherDisplay:10.37,2013-02-15 18:30:00,
2013-02-15 13:35:00,66.4,24.1,28.97,SE,135,2.3,2.3,20,0.00,CLR,SCT,0.00,WeatherDisplay:10.37,2013-02-15 18:35:00,
2013-02-15 13:40:00,65.8,27.0,28.97,WSW,248,3.5,3.5,23,0.00,CLR,SCT,0.00,WeatherDisplay:10.37,2013-02-15 18:40:00,
2013-02-15 13:45:00,66.4,24.1,28.97,WSW,248,2.3,2.3,20,0.00,CLR,SCT,0.00,WeatherDisplay:10.37,2013-02-15 18:45:00,
2013-02-15 13:50:00,65.7,23.5,28.97,SW,225,2.3,2.3,20,0.00,CLR,SCT,0.00,WeatherDisplay:10.37,2013-02-15 18:50:00,
2013-02-15 13:55:00,65.1,23.0,28.97,SW,225,2.3,2.3,20,0.00,CLR,SCT,0.00,WeatherDisplay:10.37,2013-02-15 18:55:00,
2013-02-15 14:00:00,65.1,23.0,28.97,East,90,2.3,2.3,20,0.00,CLR,SCT,0.00,WeatherDisplay:10.37,2013-02-15 19:00:00,
2013-02-15 14:05:00,64.9,22.9,28.97,West,270,2.3,2.3,20,0.00,CLR,SCT,0.00,WeatherDisplay:10.37,2013-02-15 19:05:00,
2013-02-15 14:10:00,63.9,23.1,28.94,WSW,248,2.6,2.6,21,0.00,CLR,SCT,0.00,WeatherDisplay:10.37,2013-02-15 19:10:00,
2013-02-15 14:15:00,63.3,22.7,28.94,South,180,3.5,3.5,21,0.00,CLR,SCT,0.00,WeatherDisplay:10.37,2013-02-15 19:15:00,
2013-02-15 14:20:00,63.1,22.5,28.94,ESE,112,2.9,2.9,21,0.00,CLR,SCT,0.00,WeatherDisplay:10.37,2013-02-15 19:20:00,
2013-02-15 14:25:00,63.1,22.5,28.94,SSE,158,2.3,2.3,21,0.00,CLR,SCT,0.00,WeatherDisplay:10.37,2013-02-15 19:25:00,
2013-02-15 14:30:00,63.7,23.0,28.94,South,180,1.1,1.1,21,0.00,CLR,SCT,0.00,WeatherDisplay:10.37,2013-02-15 19:30:00,
2013-02-15 14:35:00,64.2,23.4,28.94,SE,135,3.5,3.5,21,0.00,CLR,SCT,0.00,WeatherDisplay:10.37,2013-02-15 19:35:00,
2013-02-15 14:40:00,64.2,23.4,28.91,SE,135,2.3,0.0,21,0.00,CLR,SCT,0.00,WeatherDisplay:10.37,2013-02-15 19:40:00,
2013-02-15 14:45:00,64.6,22.6,28.91,WSW,248,2.3,2.3,20,0.00,CLR,SCT,0.00,WeatherDisplay:10.37,2013-02-15 19:45:00,
2013-02-15 14:50:00,64.8,22.7,28.91,SE,135,2.3,2.3,20,0.00,CLR,SCT,0.00,WeatherDisplay:10.37,2013-02-15 19:50:00,
2013-02-15 14:55:00,64.8,22.7,28.88,South,180,3.5,3.5,20,0.00,CLR,SCT,0.00,WeatherDisplay:10.37,2013-02-15 19:55:00,
2013-02-15 15:00:00,65.1,23.0,28.88,SSW,202,2.3,2.3,20,0.00,CLR,SCT,0.00,WeatherDisplay:10.37,2013-02-15 20:00:00,
2013-02-15 15:05:00,64.8,22.7,28.88,SSE,158,4.6,4.6,20,0.00,CLR,SCT,0.00,WeatherDisplay:10.37,2013-02-15 20:05:00,
2013-02-15 15:10:00,64.4,22.4,28.91,WSW,248,2.3,2.3,20,0.00,CLR,SCT,0.00,WeatherDisplay:10.37,2013-02-15 20:10:00,
2013-02-15 15:15:00,63.7,23.0,28.91,SSE,158,2.3,2.3,21,0.00,CLR,SCT,0.00,WeatherDisplay:10.37,2013-02-15 20:15:00,
2013-02-15 15:20:00,63.1,22.5,28.91,NE,45,2.3,2.3,21,0.00,CLR,SCT,0.00,WeatherDisplay:10.37,2013-02-15 20:20:00,
2013-02-15 15:25:00,63.0,22.4,28.91,SSE,158,3.5,3.5,21,0.00,CLR,SCT,0.00,WeatherDisplay:10.37,2013-02-15 20:25:00,
2013-02-15 15:30:00,63.0,22.4,28.91,WSW,248,2.4,2.4,21,0.00,CLR,SCT,0.00,WeatherDisplay:10.37,2013-02-15 20:30:00,
2013-02-15 15:35:00,62.8,22.2,28.91,SW,225,2.3,2.3,21,0.00,CLR,SCT,0.00,WeatherDisplay:10.37,2013-02-15 20:35:00,
2013-02-15 15:40:00,63.0,22.4,28.91,SE,135,2.6,2.6,21,0.00,CLR,SCT,0.00,WeatherDisplay:10.37,2013-02-15 20:40:00,
2013-02-15 15:45:00,63.0,22.4,28.91,NNE,22,2.3,0.0,21,0.00,CLR,SCT,0.00,WeatherDisplay:10.37,2013-02-15 20:45:00,
2013-02-15 15:50:00,63.0,18.7,28.91,WSW,248,2.4,2.4,18,0.00,CLR,SCT,0.00,WeatherDisplay:10.37,2013-02-15 20:50:00,
2013-02-15 15:55:00,62.8,22.2,28.91,ESE,112,1.1,0.0,21,0.00,CLR,SCT,0.00,WeatherDisplay:10.37,2013-02-15 20:55:00,
2013-02-15 16:00:00,63.3,22.7,28.91,SE,135,2.3,2.3,21,0.00,CLR,SCT,0.00,WeatherDisplay:10.37,2013-02-15 21:00:00,
2013-02-15 16:05:00,63.7,23.0,28.91,ESE,112,2.3,2.3,21,0.00,CLR,SCT,0.00,WeatherDisplay:10.37,2013-02-15 21:05:00,
2013-02-15 16:10:00,63.7,23.0,28.91,ESE,112,2.3,2.3,21,0.00,CLR,SCT,0.00,WeatherDisplay:10.37,2013-02-15 21:10:00,
2013-02-15 16:15:00,63.5,22.8,28.91,SE,135,2.9,2.9,21,0.00,CLR,SCT,0.00,WeatherDisplay:10.37,2013-02-15 21:15:00,
2013-02-15 16:20:00,63.5,22.8,28.91,NNE,22,2.3,2.3,21,0.00,CLR,SCT,0.00,WeatherDisplay:10.37,2013-02-15 21:20:00,
2013-02-15 16:25:00,63.1,22.5,28.88,West,270,1.6,0.0,21,0.00,CLR,SCT,0.00,WeatherDisplay:10.37,2013-02-15 21:25:00,
2013-02-15 16:30:00,62.1,21.6,28.88,South,180,2.3,2.3,21,0.00,CLR,SCT,0.00,WeatherDisplay:10.37,2013-02-15 21:30:00,
2013-02-15 16:35:00,61.5,18.8,28.88,SSE,158,2.0,0.0,19,0.00,CLR,SCT,0.00,WeatherDisplay:10.37,2013-02-15 21:35:00,
2013-02-15 16:40:00,61.7,21.3,28.88,NNW,338,2.3,0.0,21,0.00,CLR,SCT,0.00,WeatherDisplay:10.37,2013-02-15 21:40:00,
2013-02-15 16:45:00,61.7,19.0,28.88,WSW,248,2.3,2.3,19,0.00,CLR,SCT,0.00,WeatherDisplay:10.37,2013-02-15 21:45:00,
2013-02-15 16:50:00,61.9,21.5,28.88,South,180,2.4,2.4,21,0.00,CLR,SCT,0.00,WeatherDisplay:10.37,2013-02-15 21:50:00,
2013-02-15 16:55:00,61.9,19.1,28.88,SSE,158,3.5,3.5,19,0.00,CLR,SCT,0.00,WeatherDisplay:10.37,2013-02-15 21:55:00,
2013-02-15 17:00:00,62.1,19.3,28.88,WSW,248,2.9,2.9,19,0.00,CLR,SCT,0.00,WeatherDisplay:10.37,2013-02-15 22:00:00,
2013-02-15 17:05:00,61.5,18.8,28.88,South,180,2.3,2.3,19,0.00,CLR,SCT,0.00,WeatherDisplay:10.37,2013-02-15 22:05:00,
2013-02-15 17:10:00,60.4,17.9,28.88,South,180,3.5,3.5,19,0.00,CLR,SCT,0.00,WeatherDisplay:10.37,2013-02-15 22:10:00,
2013-02-15 17:15:00,59.7,17.3,28.88,South,180,2.6,2.6,19,0.00,CLR,SCT,0.00,WeatherDisplay:10.37,2013-02-15 22:15:00,
2013-02-15 17:20:00,59.4,17.0,28.88,SSW,202,2.3,2.3,19,0.00,CLR,SCT,0.00,WeatherDisplay:10.37,2013-02-15 22:20:00,
2013-02-15 17:25:00,59.2,16.9,28.88,SW,225,2.2,2.2,19,0.00,CLR,SCT,0.00,WeatherDisplay:10.37,2013-02-15 22:25:00,
2013-02-15 17:30:00,58.8,16.6,28.88,SE,135,1.1,0.0,19,0.00,CLR,SCT,0.00,WeatherDisplay:10.37,2013-02-15 22:30:00,
2013-02-15 17:35:00,58.6,16.4,28.88,SSE,158,2.6,2.6,19,0.00,CLR,SCT,0.00,WeatherDisplay:10.37,2013-02-15 22:35:00,
2013-02-15 17:40:00,58.1,16.0,28.88,SE,135,1.1,1.1,19,0.00,CLR,SCT,0.00,WeatherDisplay:10.37,2013-02-15 22:40:00,
2013-02-15 17:45:00,57.6,15.5,28.88,SSW,202,0.0,0.0,19,0.00,CLR,SCT,0.00,WeatherDisplay:10.37,2013-02-15 22:45:00,
2013-02-15 17:50:00,57.4,15.4,28.88,ESE,112,1.1,1.1,19,0.00,CLR,SCT,0.00,WeatherDisplay:10.37,2013-02-15 22:50:00,
2013-02-15 17:55:00,57.2,15.2,28.88,SE,135,2.0,2.0,19,0.00,CLR,SCT,0.00,WeatherDisplay:10.37,2013-02-15 22:55:00,
2013-02-15 18:00:00,57.2,15.2,28.88,SW,225,1.1,1.1,19,0.00,CLR,SCT,0.00,WeatherDisplay:10.37,2013-02-15 23:00:00,
2013-02-15 18:05:00,56.8,18.3,28.88,SE,135,1.1,0.0,22,0.00,CLR,SCT,0.00,WeatherDisplay:10.37,2013-02-15 23:05:00,
2013-02-15 18:10:00,56.8,18.3,28.91,ENE,68,1.1,0.0,22,0.00,CLR,SCT,0.00,WeatherDisplay:10.37,2013-02-15 23:10:00,
2013-02-15 18:15:00,56.5,18.0,28.91,SSE,158,2.3,2.3,22,0.00,CLR,SCT,0.00,WeatherDisplay:10.37,2013-02-15 23:15:00,
2013-02-15 18:20:00,56.3,17.9,28.91,East,90,0.0,0.0,22,0.00,CLR,SCT,0.00,WeatherDisplay:10.37,2013-02-15 23:20:00,
2013-02-15 18:25:00,55.6,17.3,28.88,East,90,0.0,0.0,22,0.00,CLR,SCT,0.00,WeatherDisplay:10.37,2013-02-15 23:25:00,
2013-02-15 18:30:00,54.9,17.7,28.88,SW,225,0.0,0.0,23,0.00,CLR,SCT,0.00,WeatherDisplay:10.37,2013-02-15 23:30:00,
2013-02-15 18:35:00,54.5,17.4,28.88,SSE,158,0.0,0.0,23,0.00,CLR,SCT,0.00,WeatherDisplay:10.37,2013-02-15 23:35:00,
2013-02-15 18:40:00,54.0,16.9,28.91,East,90,0.0,0.0,23,0.00,CLR,SCT,0.00,WeatherDisplay:10.37,2013-02-15 23:40:00,
2013-02-15 18:45:00,53.4,16.5,28.91,ESE,112,0.0,0.0,23,0.00,CLR,SCT,0.00,WeatherDisplay:10.37,2013-02-15 23:45:00,
2013-02-15 18:50:00,53.1,16.2,28.91,ESE,112,0.0,0.0,23,0.00,CLR,SCT,0.00,WeatherDisplay:10.37,2013-02-15 23:50:00,
2013-02-15 18:55:00,52.7,15.9,28.91,ESE,112,0.0,0.0,23,0.00,CLR,SCT,0.00,WeatherDisplay:10.37,2013-02-15 23:55:00,
2013-02-15 19:00:00,52.3,15.6,28.91,ESE,112,0.0,0.0,23,0.00,CLR,SCT,0.00,WeatherDisplay:10.37,2013-02-16 00:00:00,
2013-02-15 19:05:00,52.0,15.3,28.91,ESE,112,0.0,0.0,23,0.00,CLR,SCT,0.00,WeatherDisplay:10.37,2013-02-16 00:05:00,
2013-02-15 19:10:00,51.8,15.1,28.91,ESE,112,0.0,0.0,23,0.00,CLR,SCT,0.00,WeatherDisplay:10.37,2013-02-16 00:10:00,
2013-02-15 19:15:00,51.6,15.9,28.91,ESE,112,0.0,0.0,24,0.00,CLR,SCT,0.00,WeatherDisplay:10.37,2013-02-16 00:15:00,
2013-02-15 19:20:00,51.3,15.6,28.91,ESE,112,0.0,0.0,24,0.00,CLR,SCT,0.00,WeatherDisplay:10.37,2013-02-16 00:20:00,
2013-02-15 19:25:00,51.1,15.5,28.91,ESE,112,0.0,0.0,24,0.00,CLR,SCT,0.00,WeatherDisplay:10.37,2013-02-16 00:25:00,
2013-02-15 19:30:00,50.9,17.2,28.91,ESE,112,0.0,0.0,26,0.00,CLR,SCT,0.00,WeatherDisplay:10.37,2013-02-16 00:30:00,
2013-02-15 19:35:00,50.7,17.0,28.91,ESE,112,0.0,0.0,26,0.00,CLR,SCT,0.00,WeatherDisplay:10.37,2013-02-16 00:35:00,
2013-02-15 19:40:00,50.9,17.2,28.91,ESE,112,0.0,0.0,26,0.00,CLR,SCT,0.00,WeatherDisplay:10.37,2013-02-16 00:40:00,
2013-02-15 19:45:00,50.5,16.9,28.91,ESE,112,0.0,0.0,26,0.00,CLR,SCT,0.00,WeatherDisplay:10.37,2013-02-16 00:45:00,
2013-02-15 19:50:00,50.2,16.6,28.91,ESE,112,0.0,0.0,26,0.00,CLR,SCT,0.00,WeatherDisplay:10.37,2013-02-16 00:50:00,
2013-02-15 19:55:00,50.0,16.4,28.91,ESE,112,0.0,0.0,26,0.00,CLR,SCT,0.00,WeatherDisplay:10.37,2013-02-16 00:55:00,
2013-02-15 20:00:00,49.8,16.3,28.91,ESE,112,0.0,0.0,26,0.00,CLR,SCT,0.00,WeatherDisplay:10.37,2013-02-16 01:00:00,
2013-02-15 20:06:00,49.6,17.0,28.91,ESE,112,0.0,0.0,27,0.00,CLR,SCT,0.00,WeatherDisplay:10.37,2013-02-16 01:06:00,
2013-02-15 20:11:00,49.5,16.8,28.91,ESE,112,0.0,0.0,27,0.00,CLR,SCT,0.00,WeatherDisplay:10.37,2013-02-16 01:11:00,
2013-02-15 20:16:00,49.3,16.7,28.91,ESE,112,0.0,0.0,27,0.00,CLR,SCT,0.00,WeatherDisplay:10.37,2013-02-16 01:16:00,
2013-02-15 20:21:00,49.1,16.5,28.91,ESE,112,0.0,0.0,27,0.00,CLR,SCT,0.00,WeatherDisplay:10.37,2013-02-16 01:21:00,
2013-02-15 20:26:00,49.1,16.5,28.91,ESE,112,0.0,0.0,27,0.00,CLR,SCT,0.00,WeatherDisplay:10.37,2013-02-16 01:26:00,
2013-02-15 20:31:00,48.7,16.2,28.91,ESE,112,0.0,0.0,27,0.00,CLR,SCT,0.00,WeatherDisplay:10.37,2013-02-16 01:31:00,
2013-02-15 20:36:00,48.4,15.9,28.91,ESE,112,0.0,0.0,27,0.00,CLR,SCT,0.00,WeatherDisplay:10.37,2013-02-16 01:36:00,
2013-02-15 20:41:00,47.5,15.1,28.91,NW,315,1.1,0.0,27,0.00,CLR,SCT,0.00,WeatherDisplay:10.37,2013-02-16 01:41:00,
2013-02-15 20:46:00,46.9,15.5,28.91,South,180,0.0,0.0,28,0.00,CLR,SCT,0.00,WeatherDisplay:10.37,2013-02-16 01:46:00,
2013-02-15 20:51:00,46.6,15.2,28.91,SSE,158,0.0,0.0,28,0.00,CLR,SCT,0.00,WeatherDisplay:10.37,2013-02-16 01:51:00,
2013-02-15 20:56:00,46.6,15.2,28.91,SE,135,0.0,0.0,28,0.00,CLR,SCT,0.00,WeatherDisplay:10.37,2013-02-16 01:56:00,
2013-02-15 21:01:00,46.6,15.2,28.91,SE,135,0.0,0.0,28,0.00,CLR,SCT,0.00,WeatherDisplay:10.37,2013-02-16 02:01:00,
2013-02-15 21:06:00,46.8,16.1,28.91,SE,135,0.0,0.0,29,0.00,CLR,SCT,0.00,WeatherDisplay:10.37,2013-02-16 02:06:00,
2013-02-15 21:11:00,46.8,16.1,28.91,SE,135,0.0,0.0,29,0.00,CLR,SCT,0.00,WeatherDisplay:10.37,2013-02-16 02:11:00,
2013-02-15 21:16:00,46.8,16.1,28.91,SE,135,0.0,0.0,29,0.00,CLR,SCT,0.00,WeatherDisplay:10.37,2013-02-16 02:16:00,
2013-02-15 21:21:00,46.8,16.1,28.91,ESE,112,0.0,0.0,29,0.00,CLR,SCT,0.00,WeatherDisplay:10.37,2013-02-16 02:21:00,
2013-02-15 21:26:00,46.6,16.0,28.91,ESE,112,0.0,0.0,29,0.00,CLR,SCT,0.00,WeatherDisplay:10.37,2013-02-16 02:26:00,
2013-02-15 21:31:00,46.6,16.8,28.91,ESE,112,0.0,0.0,30,0.00,CLR,SCT,0.00,WeatherDisplay:10.37,2013-02-16 02:31:00,
2013-02-15 21:36:00,46.6,16.8,28.91,ESE,112,0.0,0.0,30,0.00,CLR,SCT,0.00,WeatherDisplay:10.37,2013-02-16 02:36:00,
2013-02-15 21:41:00,46.4,16.6,28.91,ESE,112,0.0,0.0,30,0.00,CLR,SCT,0.00,WeatherDisplay:10.37,2013-02-16 02:41:00,
2013-02-15 21:46:00,46.2,17.2,28.91,ESE,112,0.0,0.0,31,0.00,CLR,SCT,0.00,WeatherDisplay:10.37,2013-02-16 02:46:00,
2013-02-15 21:51:00,46.0,17.0,28.91,ESE,112,0.0,0.0,31,0.00,CLR,SCT,0.00,WeatherDisplay:10.37,2013-02-16 02:51:00,
2013-02-15 21:56:00,46.0,17.0,28.91,ESE,112,0.0,0.0,31,0.00,CLR,SCT,0.00,WeatherDisplay:10.37,2013-02-16 02:56:00,
2013-02-15 22:01:00,46.2,17.9,28.91,South,180,0.0,0.0,32,0.00,CLR,SCT,0.00,WeatherDisplay:10.37,2013-02-16 03:01:00,
2013-02-15 22:06:00,46.2,18.7,28.91,SSE,158,0.0,0.0,33,0.00,CLR,SCT,0.00,WeatherDisplay:10.37,2013-02-16 03:06:00,
2013-02-15 22:11:00,46.2,18.7,28.91,SE,135,0.0,0.0,33,0.00,CLR,SCT,0.00,WeatherDisplay:10.37,2013-02-16 03:11:00,
2013-02-15 22:16:00,46.0,18.5,28.91,SE,135,0.0,0.0,33,0.00,CLR,SCT,0.00,WeatherDisplay:10.37,2013-02-16 03:16:00,
2013-02-15 22:21:00,45.9,19.0,28.91,SE,135,0.0,0.0,34,0.00,CLR,SCT,0.00,WeatherDisplay:10.37,2013-02-16 03:21:00,
2013-02-15 22:26:00,46.0,19.2,28.91,SW,225,0.0,0.0,34,0.00,CLR,SCT,0.00,WeatherDisplay:10.37,2013-02-16 03:26:00,
2013-02-15 22:31:00,46.0,19.9,28.91,WSW,248,0.9,0.0,35,0.00,CLR,SCT,0.00,WeatherDisplay:10.37,2013-02-16 03:31:00,
2013-02-15 22:36:00,46.6,21.7,28.91,WSW,248,2.3,2.3,37,0.00,CLR,SCT,0.00,WeatherDisplay:10.37,2013-02-16 03:36:00,
2013-02-15 22:41:00,46.6,21.7,28.91,SW,225,2.2,2.2,37,0.00,CLR,SCT,0.00,WeatherDisplay:10.37,2013-02-16 03:41:00,
2013-02-15 22:46:00,46.9,22.6,28.91,SW,225,1.1,1.4,38,0.00,CLR,SCT,0.00,WeatherDisplay:10.37,2013-02-16 03:46:00,
2013-02-15 22:51:00,46.8,21.8,28.91,West,270,1.1,1.1,37,0.00,CLR,SCT,0.00,WeatherDisplay:10.37,2013-02-16 03:51:00,
2013-02-15 22:56:00,46.6,21.7,28.91,West,270,0.0,0.0,37,0.00,CLR,SCT,0.00,WeatherDisplay:10.37,2013-02-16 03:56:00,
2013-02-15 23:01:00,46.4,21.5,28.91,WSW,248,2.3,0.0,37,0.00,CLR,SCT,0.00,WeatherDisplay:10.37,2013-02-16 04:01:00,
2013-02-15 23:06:00,46.2,22.0,28.91,South,180,0.0,0.0,38,0.00,CLR,SCT,0.00,WeatherDisplay:10.37,2013-02-16 04:06:00,
2013-02-15 23:11:00,45.9,21.7,28.91,South,180,0.0,0.0,38,0.00,CLR,SCT,0.00,WeatherDisplay:10.37,2013-02-16 04:11:00,
2013-02-15 23:16:00,45.5,21.3,28.91,South,180,0.0,0.0,38,0.00,CLR,SCT,0.00,WeatherDisplay:10.37,2013-02-16 04:16:00,
2013-02-15 23:21:00,45.3,21.2,28.91,South,180,0.0,0.0,38,0.00,CLR,SCT,0.00,WeatherDisplay:10.37,2013-02-16 04:21:00,
2013-02-15 23:26:00,45.1,21.0,28.88,WSW,248,0.0,0.0,38,0.00,CLR,SCT,0.00,WeatherDisplay:10.37,2013-02-16 04:26:00,
2013-02-15 23:31:00,44.8,20.7,28.88,WSW,248,0.0,0.0,38,0.00,CLR,SCT,0.00,WeatherDisplay:10.37,2013-02-16 04:31:00,
2013-02-15 23:36:00,45.1,21.6,28.88,WSW,248,2.3,2.3,39,0.00,CLR,SCT,0.00,WeatherDisplay:10.37,2013-02-16 04:36:00,
2013-02-15 23:41:00,45.1,21.6,28.91,South,180,0.0,0.0,39,0.00,CLR,SCT,0.00,WeatherDisplay:10.37,2013-02-16 04:41:00,
2013-02-15 23:46:00,44.8,21.3,28.91,South,180,0.0,0.0,39,0.00,CLR,SCT,0.00,WeatherDisplay:10.37,2013-02-16 04:46:00,
2013-02-15 23:51:00,44.6,21.1,28.91,South,180,0.0,0.0,39,0.00,CLR,SCT,0.00,WeatherDisplay:10.37,2013-02-16 04:51:00,
2013-02-15 23:56:00,44.6,21.1,28.88,South,180,0.0,0.0,39,0.00,CLR,SCT,0.00,WeatherDisplay:10.37,2013-02-16 04:56:00,